Location: Middlebury
(44.0133°N, 73.1813°W)
Time: 18:13:22
(UTC-05:00)

ISS - Pass Details

Date: 25 January 2020
Orbit: 416 x 422 km, 51.6° (Epoch: 20 February)

Event Time Altitude Azimuth Distance (km) Brightness Sun altitude
Rises 19:23:42 0° 283° (WNW) 2,376 1.3 -27.0°
Reaches altitude 10° 19:26:06 10° 299° (WNW) 1,510 -0.2 -27.4°
Enters shadow 19:27:07 16° 312° (NW) 1,208 -0.9 -27.6°
